Regional Weather Roundup
Issued by NWS

Home | Current Version | Previous Version | Graphics & Text | Print | Product List | Glossary On
Versions: 1 2 3 4 5 6 7 8 9 10 11 12 13 14 15 16 17 18 19 20 21 22 23 24 25 26 27 28 29 30 31 32 33 34 35 36 37 38 39 40 41 42 43 44 45 46 47 48 49 50
000
ASUS43 KFSD 131502
RWRSD

WEATHER ROUNDUP FOR SOUTH DAKOTA
NATIONAL WEATHER SERVICE SIOUX FALLS SD
900 AM CST WED DEC 13 2017

NOTE: "FAIR" INDICATES FEW OR NO CLOUDS BELOW 12,000 FEET WITH NO
SIGNIFICANT WEATHER AND/OR OBSTRUCTIONS TO VISIBILITY.


SDZ001>005-009-010-012>017-131600-
NORTHWEST AND NORTH CENTRAL SOUTH DAKOTA

CITY           SKY/WX    TMP DP  RH WIND       PRES   REMARKS
BUFFALO          N/A     33  24  69 NW25      29.97R WCI  20
FAITH            N/A     34  26  72 NW28G36   29.95R WCI  21
MOBRIDGE       CLEAR     37  28  70 NW23      29.84R
$$

SDZ012>016-024>037-041>051-057-063-072>074-131600-
SOUTHWEST AND SOUTH CENTRAL SOUTH DAKOTA

CITY           SKY/WX    TMP DP  RH WIND       PRES   REMARKS
RAPID CTY ARPT CLEAR     40  20  44 NW38G47   30.00S
PIERRE         CLEAR     39  28  64 NW25G38   29.89R
CUSTER         CLEAR     36  11  35 VRB7G23   30.00R
ELLSWORTH AFB  PTCLDY    40  19  43 NW29G37   30.01
PHILIP         CLEAR     39  26  59 NW25G36   29.98R
PINE RIDGE     CLEAR     34  19  54 N8        30.04R WCI  27
SPEARFISH      FAIR      36  18  48 W18G30    30.10R
WINNER         FAIR      42  26  53 NW29G38   29.89R
$$

SDZ004>011-016>023-039-040-131600-
NORTHEAST SOUTH DAKOTA

CITY           SKY/WX    TMP DP  RH WIND       PRES   REMARKS
ABERDEEN       CLOUDY    37  31  78 N25G37    29.79R
WATERTOWN      CLOUDY    35  32  88 NW26G43   29.68R WCI  22
BROOKINGS      CLOUDY    36  31  82 NW25G36   29.67R
SISSETON         N/A     35  31  85 N32       29.70R WCI  21
$$

SDZ017-020-022-023-036>040-048>070-131600-
SOUTHEAST SOUTH DAKOTA

CITY           SKY/WX    TMP DP  RH WIND       PRES   REMARKS
SIOUX FALLS    CLOUDY    40  33  76 NW25G43   29.68R
HURON          CLOUDY    39  30  70 NW21G30   29.78R
CHAMBERLAIN    CLEAR     42  30  62 NW22G29   29.86R
MITCHELL       CLEAR     41  30  65 NW25G38   29.79R
YANKTON        CLEAR     43  29  57 NW24G32   29.76R
$$

ABBREVIATIONS USED IN REMARKS
   TC - TEMPERATURE IN CELSIUS
  WCI - WIND CHILL INDEX
   HX - HEAT INDEX
  VSB - VISIBILITY





USA.gov is the U.S. government's official web portal to all federal, state and local government web resources and services.